THA1123 YSSY-VTBS

Flight info

Callsign THA1123
Flight time N/A
Altitude 38000
Route KADOM A576 CIN/N0486F400 A576 ATMAP M635 BLI G464 PNK N875 ENREP M904 TONIK M644 ALUMO Y12 ALEMI TUMGA1C
Aircraft A359/H-SDE2E3GHIJ3J4J5LM1ORWXY/LB1D1

Departure

Time N/A
Airport Sydney Kingsford Smith International Airport (YSSY)

Arrival

Time 2026-05-05 00:29
Airport Suvarnabhumi Airport (VTBS)
Time Latitude Longitude Altitude Speed Heading
2026-05-04 23:46 10.26742 101.89995 39897 ft 484 kts 354°
2026-05-04 23:46 10.30130 101.89701 39885 ft 488 kts 354°
2026-05-04 23:47 10.36889 101.89114 39883 ft 483 kts 354°
2026-05-04 23:47 10.43551 101.88532 39883 ft 479 kts 354°
2026-05-04 23:48 10.49066 101.88048 39885 ft 479 kts 354°
2026-05-04 23:48 10.55702 101.87465 39887 ft 478 kts 354°
2026-05-04 23:49 10.62338 101.86881 39887 ft 478 kts 354°
2026-05-04 23:49 10.68985 101.86297 39890 ft 478 kts 354°
2026-05-04 23:50 10.75618 101.85667 39887 ft 478 kts 351°
2026-05-04 23:50 10.82102 101.84336 39888 ft 478 kts 347°
2026-05-04 23:51 10.88600 101.82870 39887 ft 479 kts 347°
2026-05-04 23:51 10.95097 101.81391 39885 ft 479 kts 346°
2026-05-04 23:52 11.01599 101.79907 39885 ft 479 kts 346°
2026-05-04 23:52 11.08107 101.78419 39886 ft 479 kts 346°
2026-05-04 23:53 11.14629 101.76928 39890 ft 481 kts 346°
2026-05-04 23:53 11.21170 101.75432 39889 ft 482 kts 347°
2026-05-04 23:54 11.27677 101.73942 39886 ft 482 kts 346°
2026-05-04 23:54 11.34228 101.72442 39890 ft 482 kts 346°
2026-05-04 23:55 11.40787 101.70939 39891 ft 482 kts 347°
2026-05-04 23:56 11.50620 101.68685 39895 ft 482 kts 347°
2026-05-04 23:56 11.57170 101.67183 39894 ft 482 kts 346°
2026-05-04 23:57 11.63728 101.65678 39896 ft 483 kts 346°
2026-05-04 23:57 11.70242 101.64182 39892 ft 483 kts 346°
2026-05-04 23:58 11.76811 101.62673 39893 ft 483 kts 346°
2026-05-04 23:58 11.83381 101.61164 39899 ft 483 kts 346°
2026-05-04 23:59 11.89928 101.59658 39896 ft 482 kts 346°
2026-05-04 23:59 11.96424 101.58164 39897 ft 482 kts 346°
2026-05-05 00:00 12.02963 101.56659 39895 ft 482 kts 346°
2026-05-05 00:00 12.09499 101.55154 39898 ft 481 kts 346°
2026-05-05 00:01 12.16044 101.53646 39896 ft 481 kts 346°
2026-05-05 00:01 12.22578 101.52140 39894 ft 481 kts 346°
2026-05-05 00:02 12.29109 101.50633 39900 ft 481 kts 346°
2026-05-05 00:02 12.35634 101.49128 39899 ft 481 kts 346°
2026-05-05 00:03 12.42166 101.47620 39897 ft 481 kts 346°
2026-05-05 00:03 12.48693 101.46112 39900 ft 481 kts 346°
2026-05-05 00:04 12.55193 101.44611 39333 ft 476 kts 345°
2026-05-05 00:04 12.58400 101.43869 38468 ft 482 kts 345°
2026-05-05 00:04 12.61696 101.43104 37493 ft 487 kts 345°
2026-05-05 00:04 12.64961 101.42160 36581 ft 489 kts 341°
2026-05-05 00:05 12.68232 101.41099 35722 ft 492 kts 340°
2026-05-05 00:05 12.71505 101.40043 34844 ft 491 kts 341°
2026-05-05 00:05 12.74756 101.39010 33510 ft 488 kts 341°
2026-05-05 00:05 12.78011 101.37985 31846 ft 491 kts 341°
2026-05-05 00:06 12.81297 101.36957 30169 ft 495 kts 342°
2026-05-05 00:06 12.84608 101.35925 28278 ft 499 kts 342°
2026-05-05 00:06 12.87930 101.34891 26616 ft 498 kts 342°
2026-05-05 00:06 12.91225 101.33867 25435 ft 488 kts 342°
2026-05-05 00:07 12.94397 101.32881 24772 ft 466 kts 342°
2026-05-05 00:07 12.97440 101.31936 24137 ft 447 kts 342°
2026-05-05 00:07 13.00383 101.31020 23524 ft 442 kts 342°
2026-05-05 00:07 13.03333 101.30102 22812 ft 443 kts 343°
2026-05-05 00:08 13.06283 101.29184 22170 ft 443 kts 342°
2026-05-05 00:08 13.09222 101.28269 21541 ft 440 kts 343°
2026-05-05 00:08 13.12107 101.27371 20923 ft 437 kts 343°
2026-05-05 00:08 13.15012 101.26467 20292 ft 434 kts 343°
2026-05-05 00:09 13.17897 101.25568 19676 ft 432 kts 343°
2026-05-05 00:09 13.20733 101.24685 19453 ft 418 kts 343°
2026-05-05 00:09 13.23277 101.23892 19333 ft 395 kts 343°
2026-05-05 00:09 13.25097 101.23325 19234 ft 374 kts 343°
2026-05-05 00:10 13.27505 101.22575 19096 ft 349 kts 343°
2026-05-05 00:10 13.29836 101.21848 18956 ft 354 kts 343°
2026-05-05 00:10 13.32177 101.21026 18555 ft 357 kts 336°
2026-05-05 00:10 13.34254 101.19634 18020 ft 359 kts 316°
2026-05-05 00:11 13.35727 101.17581 17612 ft 363 kts 296°
2026-05-05 00:11 13.36534 101.15089 17291 ft 371 kts 283°
2026-05-05 00:11 13.37082 101.12497 16941 ft 372 kts 282°
2026-05-05 00:11 13.37603 101.09905 16600 ft 370 kts 282°
2026-05-05 00:12 13.38129 101.07322 16264 ft 368 kts 282°
2026-05-05 00:12 13.38657 101.04758 15930 ft 366 kts 282°
2026-05-05 00:12 13.39187 101.02206 15596 ft 365 kts 282°
2026-05-05 00:12 13.39716 100.99665 15261 ft 363 kts 283°
2026-05-05 00:13 13.40245 100.97135 14935 ft 362 kts 283°
2026-05-05 00:13 13.40772 100.94617 14605 ft 360 kts 283°
2026-05-05 00:13 13.41332 100.92114 14262 ft 358 kts 287°
2026-05-05 00:13 13.42388 100.89825 13944 ft 354 kts 307°
2026-05-05 00:14 13.44128 100.88118 13633 ft 350 kts 325°
2026-05-05 00:14 13.46187 100.86726 13313 ft 347 kts 328°
2026-05-05 00:14 13.48165 100.85453 13096 ft 330 kts 329°
2026-05-05 00:14 13.50043 100.84241 12845 ft 311 kts 329°
2026-05-05 00:15 13.51861 100.83062 12602 ft 309 kts 329°
2026-05-05 00:15 13.53710 100.81930 12353 ft 308 kts 335°
2026-05-05 00:15 13.55752 100.81350 12101 ft 305 kts 358°
2026-05-05 00:15 13.57842 100.81590 11707 ft 301 kts 14°
2026-05-05 00:16 13.59866 100.82138 11388 ft 301 kts 16°
2026-05-05 00:16 13.61879 100.82714 11108 ft 300 kts 16°
2026-05-05 00:16 13.63889 100.83286 10834 ft 299 kts 16°
2026-05-05 00:16 13.65897 100.83847 10555 ft 298 kts 16°
2026-05-05 00:17 13.67899 100.84399 10279 ft 297 kts 16°
2026-05-05 00:17 13.69896 100.84947 10020 ft 296 kts 16°
2026-05-05 00:17 13.71880 100.85491 9763 ft 293 kts 16°
2026-05-05 00:17 13.73814 100.86021 9579 ft 282 kts 16°
2026-05-05 00:18 13.75674 100.86530 9414 ft 270 kts 16°
2026-05-05 00:18 13.77416 100.87007 9153 ft 257 kts 16°
2026-05-05 00:18 13.79143 100.87481 8902 ft 257 kts 16°
2026-05-05 00:18 13.80865 100.87954 8667 ft 255 kts 17°
2026-05-05 00:19 13.82578 100.88424 8424 ft 255 kts 17°
2026-05-05 00:19 13.84289 100.88897 8146 ft 254 kts 17°
2026-05-05 00:19 13.85993 100.89365 7807 ft 252 kts 17°
2026-05-05 00:19 13.87691 100.89829 7553 ft 252 kts 17°
2026-05-05 00:20 13.89384 100.90292 7321 ft 251 kts 17°
2026-05-05 00:20 13.91073 100.90754 7093 ft 250 kts 17°
2026-05-05 00:20 13.92752 100.91219 6853 ft 249 kts 17°
2026-05-05 00:20 13.94426 100.91678 6630 ft 249 kts 17°
2026-05-05 00:21 13.96098 100.92131 6384 ft 247 kts 16°
2026-05-05 00:21 13.97812 100.92277 6155 ft 250 kts 353°
2026-05-05 00:21 13.99393 100.91561 5919 ft 253 kts 320°
2026-05-05 00:21 14.00362 100.90078 5696 ft 253 kts 289°
2026-05-05 00:22 14.00833 100.88335 5459 ft 252 kts 283°
2026-05-05 00:22 14.01014 100.86580 5282 ft 242 kts 264°
2026-05-05 00:22 14.00427 100.85028 5091 ft 230 kts 227°
2026-05-05 00:22 13.99154 100.84156 5003 ft 213 kts 200°
2026-05-05 00:23 13.97787 100.83672 4988 ft 206 kts 194°
2026-05-05 00:23 13.96427 100.83296 4991 ft 205 kts 192°
2026-05-05 00:23 13.95044 100.82932 4964 ft 205 kts 192°
2026-05-05 00:23 13.93661 100.82577 4818 ft 204 kts 192°
2026-05-05 00:24 13.92286 100.82216 4563 ft 204 kts 193°
2026-05-05 00:24 13.90912 100.81849 4262 ft 204 kts 193°
2026-05-05 00:24 13.89531 100.81484 3947 ft 205 kts 193°
2026-05-05 00:24 13.88146 100.81118 3677 ft 205 kts 193°
2026-05-05 00:25 13.86769 100.80753 3407 ft 204 kts 193°
2026-05-05 00:25 13.85406 100.80392 3172 ft 199 kts 193°
2026-05-05 00:25 13.84073 100.80040 2912 ft 196 kts 193°
2026-05-05 00:25 13.82762 100.79693 2660 ft 193 kts 193°
2026-05-05 00:26 13.81482 100.79355 2423 ft 187 kts 193°
2026-05-05 00:26 13.80235 100.79025 2181 ft 183 kts 193°
2026-05-05 00:26 13.79031 100.78707 1946 ft 179 kts 193°
2026-05-05 00:26 13.77846 100.78394 1726 ft 172 kts 194°
2026-05-05 00:27 13.76727 100.78098 1509 ft 161 kts 194°
2026-05-05 00:27 13.75671 100.77818 1302 ft 153 kts 194°
2026-05-05 00:27 13.74671 100.77554 1109 ft 144 kts 194°
2026-05-05 00:27 13.73727 100.77305 931 ft 139 kts 194°
2026-05-05 00:28 13.72793 100.77059 785 ft 139 kts 193°
2026-05-05 00:28 13.71862 100.76814 593 ft 137 kts 194°
2026-05-05 00:28 13.70944 100.76574 404 ft 135 kts 194°
2026-05-05 00:28 13.70039 100.76336 240 ft 134 kts 194°
2026-05-05 00:29 13.69139 100.76096 57 ft 133 kts 194°
2026-05-05 00:29 13.68285 100.75873 21 ft 113 kts 194°
2026-05-05 00:29 13.67637 100.75702 20 ft 79 kts 194°
2026-05-05 00:29 13.67229 100.75571 21 ft 44 kts 213°
2026-05-05 00:30 13.67099 100.75449 23 ft 5 kts 234°
2026-05-05 00:30 13.67091 100.75407 23 ft 7 kts 280°
2026-05-05 00:30 13.67127 100.75380 21 ft 7 kts 356°
2026-05-05 00:30 13.67187 100.75391 23 ft 10 kts 16°
2026-05-05 00:31 13.67268 100.75414 20 ft 14 kts 13°
2026-05-05 00:31 13.67370 100.75439 23 ft 17 kts 13°
2026-05-05 00:31 13.67491 100.75470 22 ft 19 kts 14°
2026-05-05 00:31 13.67629 100.75508 20 ft 22 kts 14°
2026-05-05 00:32 13.67783 100.75548 21 ft 24 kts 14°
2026-05-05 00:32 13.67946 100.75591 22 ft 24 kts 14°
2026-05-05 00:32 13.68104 100.75632 22 ft 23 kts 14°
2026-05-05 00:32 13.68264 100.75674 23 ft 24 kts 14°
2026-05-05 00:33 13.68394 100.75708 22 ft 8 kts
2026-05-05 00:33 13.68443 100.75682 23 ft 9 kts 302°
2026-05-05 00:33 13.68466 100.75611 19 ft 12 kts 284°
2026-05-05 00:33 13.68489 100.75520 22 ft 14 kts 284°